Weather History for KJAC - May, 2013

Change the Weather History Date:

Thursday, May 16, 2013

  Actual Average Record
Temperature  
Mean Temperature 53 °F -  
Max Temperature 60 °F 62 °F 75 °F (1964)
Min Temperature 46 °F 30 °F 23 °F (1990)
Degree Days  
Heating Degree Days 12    
Growing Degree Days 3 (Base 50)    
Moisture  
Dew Point 42 °F    
Average Humidity 76    
Maximum Humidity 100    
Minimum Humidity 39    
Precipitation  
Precipitation 0.00 in - - ()
Sea Level Pressure  
Sea Level Pressure 29.95 in    
Wind  
Wind Speed 6 mph (SSW)    
Max Wind Speed 18 mph    
Max Gust Speed 23 mph    
Visibility 10 miles    
Events Rain    
Averages and records for this station are not official NWS values.
T = Trace of Precipitation, MM = Missing Value Source: NWS Daily Summary

Daily Weather History Graph

Daily Weather History Graph

Search for Another Location

Airport or City:

Trip Planner

Search our weather history database for the weather conditions in past years. The results will help you decide how hot, cold, wet, or windy it might be!

Date:

Astronomy

May. 16, 2013 Rise Set
Actual Time 5:56 AM MDT 8:42 PM MDT
Civil Twilight 5:23 AM MDT 9:16 PM MDT
Nautical Twilight 4:41 AM MDT 9:58 PM MDT
Astronomical Twilight 3:53 AM MDT 10:47 PM MDT
Moon 11:36 AM MDT (5/16) 1:02 AM MDT (5/16)
Length of Visible Light 15h 52m
Length of Day
14h 46m
Waxing Crescent, 36% of the Moon is Illuminated
May 16
Waxing Crescent
May 17
First Quarter
May 24
Full
May 31
Last Quarter
Jun 8
New

Hourly Weather History & Observations

Time (MDT) Temp. Windchill Dew Point Humidity Pressure Visibility Wind Dir Wind Speed Gust Speed Precip Events Conditions
12:15 AM 51.8 °F - 41.0 °F 67% 29.96 in 10.0 mi SW 6.9 mph - N/A   Mostly Cloudy
12:35 AM 51.8 °F - 41.0 °F 67% 29.97 in 10.0 mi SW 8.1 mph - N/A   Scattered Clouds
12:55 AM 51.8 °F - 39.2 °F 62% 29.97 in 10.0 mi SW 10.4 mph - N/A   Clear
1:15 AM 51.8 °F - 41.0 °F 67% 29.98 in 10.0 mi SW 10.4 mph - N/A   Scattered Clouds
1:36 AM 51.8 °F - 41.0 °F 67% 29.96 in 10.0 mi SW 11.5 mph - N/A   Mostly Cloudy
1:55 AM 51.8 °F - 42.8 °F 71% 29.97 in 10.0 mi SW 6.9 mph - N/A   Mostly Cloudy
2:15 AM 50.0 °F - 42.8 °F 76% 29.96 in 10.0 mi SW 6.9 mph - N/A   Scattered Clouds
2:35 AM 51.8 °F - 42.8 °F 71% 29.95 in 10.0 mi WSW 8.1 mph - N/A   Scattered Clouds
2:55 AM 50.0 °F - 42.8 °F 76% 29.95 in 10.0 mi Calm Calm - N/A   Clear
3:15 AM 48.2 °F - 41.0 °F 76% 29.95 in 10.0 mi Calm Calm - N/A   Clear
3:35 AM 48.2 °F - 41.0 °F 76% 29.94 in 10.0 mi SSW 5.8 mph - N/A   Clear
3:55 AM 48.2 °F - 41.0 °F 76% 29.94 in 10.0 mi SSE 5.8 mph - N/A   Clear
4:15 AM 46.4 °F 44.3 °F 39.2 °F 76% 29.94 in 10.0 mi SE 4.6 mph - N/A   Clear
4:55 AM 46.4 °F 45.2 °F 39.2 °F 76% 29.95 in 10.0 mi SSE 3.5 mph - N/A   Clear
5:15 AM 46.4 °F 44.3 °F 39.2 °F 76% 29.95 in 10.0 mi SE 4.6 mph - N/A   Partly Cloudy
5:55 AM 46.4 °F 42.9 °F 41.0 °F 81% 29.95 in 10.0 mi SE 6.9 mph - N/A   Overcast
6:16 AM 46.4 °F 43.5 °F 41.0 °F 81% 29.95 in 10.0 mi SE 5.8 mph - N/A   Overcast
6:35 AM 48.2 °F - 41.0 °F 76% 29.96 in 10.0 mi SSE 6.9 mph - N/A   Overcast
6:51 AM 48.2 °F - 42.8 °F 82% 29.96 in 10.0 mi ESE 4.6 mph - N/A Rain Light Rain
7:51 AM 50.0 °F - 42.8 °F 76% 29.97 in 10.0 mi Calm Calm - N/A   Scattered Clouds
8:51 AM 53.6 °F - 42.8 °F 67% 29.97 in 10.0 mi WSW 3.5 mph - N/A   Scattered Clouds
9:59 AM 55.4 °F - 44.6 °F 67% 29.97 in 10.0 mi SSW 8.1 mph - N/A   Mostly Cloudy
10:52 AM 57.2 °F - 39.2 °F 51% 29.96 in 10.0 mi South 18.4 mph 23.0 mph N/A   Mostly Cloudy
11:51 AM 59.0 °F - 39.2 °F 48% 29.96 in 10.0 mi South 18.4 mph 23.0 mph N/A   Scattered Clouds
12:55 PM 60.8 °F - 39.2 °F 45% 29.94 in 10.0 mi SSW 6.9 mph 17.3 mph N/A   Partly Cloudy
1:53 PM 60.8 °F - 35.6 °F 39% 29.92 in 10.0 mi South 11.5 mph 20.7 mph N/A   Overcast
2:55 PM 57.2 °F - 41.0 °F 55% 29.93 in 10.0 mi WNW 9.2 mph - N/A   Mostly Cloudy
3:52 PM 57.2 °F - 39.2 °F 51% 29.91 in 10.0 mi SE 8.1 mph - N/A   Scattered Clouds
4:55 PM 57.2 °F - 42.8 °F 59% 29.90 in 10.0 mi West 8.1 mph - N/A   Overcast
5:55 PM 50.0 °F - 46.4 °F 87% 29.95 in 8.0 mi SSW 10.4 mph - N/A   Overcast
6:55 PM 48.2 °F - 46.4 °F 93% 29.94 in 8.0 mi Calm Calm - N/A   Overcast
7:51 PM 48.2 °F - 46.4 °F 93% 29.95 in 10.0 mi Calm Calm - N/A   Scattered Clouds
8:52 PM 48.2 °F - 46.4 °F 93% 29.95 in 10.0 mi Calm Calm - N/A   Scattered Clouds
9:35 PM 48.2 °F - 46.4 °F 93% 29.96 in 10.0 mi North 4.6 mph - N/A   Overcast
9:55 PM 48.2 °F - 46.4 °F 93% 29.97 in 10.0 mi Calm Calm - N/A   Overcast
10:16 PM 46.4 °F 45.2 °F 46.4 °F 100% 29.97 in 10.0 mi WNW 3.5 mph - N/A   Overcast
10:35 PM 46.4 °F - 44.6 °F 93% 29.97 in 10.0 mi Calm Calm - N/A   Overcast
10:56 PM 46.4 °F - 44.6 °F 93% 29.97 in 6.0 mi Calm Calm - N/A   Overcast
11:15 PM 46.4 °F 45.2 °F 46.4 °F 100% 29.97 in 9.0 mi West 3.5 mph - N/A   Overcast
11:35 PM 46.4 °F - 46.4 °F 100% 29.97 in 9.0 mi Calm Calm - N/A   Overcast
11:55 PM 46.4 °F 45.2 °F 46.4 °F 100% 29.97 in 9.0 mi WSW 3.5 mph - N/A   Overcast